Location: Devore Heights
(34.2372°N, 117.4156°W)
Time: 18:34:46
(UTC+00:00)

Vanguard 1 Rocket - Pass Details

Date: 22 September 2024
Orbit: 650 x 4218 km, 34.3° (Epoch: 04 October)

Event Time Altitude Azimuth Distance (km) Brightness Sun altitude
Rises 13:43:19 0° 282° (WNW) 5,962 10.9 0.2°
Reaches altitude 10° 13:46:30 10° 281° (W) 5,319 10.7 0.9°
Maximum altitude 14:04:34 80° 198° (SSW) 3,819 10.6 4.6°
Drops below altitude 10° 14:31:09 10° 116° (ESE) 7,314 13.7 10.1°
Sets 14:36:31 0° 116° (ESE) 8,165 13.8 11.2°
